Mexico City Airport, Mexico

8:32 AM CDT on June 21, 2018 (GMT -0500)
Lic Benito Juarez International

Weather History for MMMX - May, 2009

Change the Weather History Date:

Friday, May 22, 2009

  Actual Average Record
Temperature  
Mean Temperature 64 °F -  
Max Temperature 75 °F 76 °F 87 °F (2013)
Min Temperature 53 °F 53 °F 44 °F (2002)
Degree Days  
Heating Degree Days 1    
Growing Degree Days 14 (Base 50)    
Moisture  
Dew Point 49 °F    
Average Humidity 62    
Maximum Humidity 94    
Minimum Humidity 29    
Precipitation  
Precipitation 0.45 in - - ()
Sea Level Pressure  
Sea Level Pressure 30.12 in    
Wind  
Wind Speed 4 mph ()    
Max Wind Speed 10 mph    
Max Gust Speed -    
Visibility 6.6 miles    
Events Rain    
Averages and records for this station are not official NWS values.
T = Trace of Precipitation, MM = Missing Value Source: Averaged Metar Reports

Daily Weather History Graph

Daily Weather History Graph

Search for Another Location

Airport or City:

Astronomy

May. 22, 2009 Rise Set
Actual Time 6:58 AM CDT 8:07 PM CDT
Civil Twilight 6:35 AM CDT 8:31 PM CDT
Nautical Twilight 6:06 AM CDT 8:59 PM CDT
Astronomical Twilight 5:37 AM CDT 9:28 PM CDT
Moon 5:07 AM CDT (5/22) 6:30 PM CDT (5/22)
Length of Visible Light 13h 56m
Length of Day
13h 08m
Waning Crescent, 5% of the Moon is Illuminated
May 22
Waning Crescent
May 24
New
May 30
First Quarter
Jun 7
Full
Jun 15
Last Quarter

Hourly Weather History & Observations

Time (CDT) Temp. Dew Point Humidity Pressure Visibility Wind Dir Wind Speed Gust Speed Precip Events Conditions
1:45 AM 55.4 °F 51.8 °F 88% 30.24 in 12.0 mi Calm Calm - N/A   Partly Cloudy
2:45 AM 53.6 °F 51.8 °F 94% 30.22 in 10.0 mi North 5.8 mph - N/A   Scattered Clouds
3:45 AM 55.4 °F 51.8 °F 88% 29.74 in 10.0 mi NNE 6.9 mph - N/A   Scattered Clouds
4:45 AM 55.4 °F 50.0 °F 82% 30.22 in 8.0 mi NNW 3.5 mph - N/A Rain Light Rain
5:47 AM 53.6 °F 51.8 °F 94% 30.23 in 6.0 mi Calm Calm - N/A   Mostly Cloudy
6:46 AM 55.4 °F 51.8 °F 88% 29.85 in 5.0 mi Calm Calm - N/A   Mostly Cloudy
7:20 AM 55.4 °F 51.8 °F 88% 30.25 in 5.0 mi East 5.8 mph - N/A   Mostly Cloudy
7:45 AM 55.4 °F 50.0 °F 82% 30.26 in 5.0 mi SE 6.9 mph - N/A   Mostly Cloudy
8:45 AM 57.2 °F 51.8 °F 82% 30.28 in 5.0 mi SSW 3.5 mph - N/A   Mostly Cloudy
9:21 AM 57.2 °F 51.8 °F 82% 30.28 in 4.0 mi South 4.6 mph - N/A   Mostly Cloudy
9:45 AM 59.0 °F 51.8 °F 77% 29.87 in 4.0 mi South 3.5 mph - N/A   Mostly Cloudy
10:20 AM 60.8 °F 51.8 °F 72% 30.28 in 4.0 mi South 3.5 mph - N/A   Mostly Cloudy
10:45 AM 60.8 °F 50.0 °F 68% 30.28 in 4.0 mi Calm Calm - N/A   Mostly Cloudy
11:29 AM 64.4 °F 50.0 °F 59% 30.27 in 4.0 mi Calm Calm - N/A   Mostly Cloudy
11:31 AM 64.4 °F 50.0 °F 59% 30.27 in 4.0 mi Calm Calm - N/A   Mostly Cloudy
11:45 AM 66.2 °F 48.2 °F 52% 30.27 in 4.0 mi SE 4.6 mph - N/A   Mostly Cloudy
12:45 PM 68.0 °F 50.0 °F 52% 29.79 in 5.0 mi ESE 8.1 mph - N/A   Mostly Cloudy
12:48 PM 68.0 °F 50.0 °F 52% 30.24 in 5.0 mi ESE 8.1 mph - N/A   Mostly Cloudy
12:55 PM 68.0 °F 50.0 °F 52% 29.79 in 5.0 mi ESE 8.1 mph - N/A   Mostly Cloudy
1:23 PM 71.6 °F 44.6 °F 38% 30.23 in 5.0 mi Calm Calm - N/A   Scattered Clouds
1:45 PM 73.4 °F 42.8 °F 33% 30.22 in 6.0 mi South 4.6 mph - N/A   Scattered Clouds
2:26 PM 75.2 °F 41.0 °F 29% 30.19 in 6.0 mi NW 3.5 mph - N/A   Scattered Clouds
2:45 PM 75.2 °F 42.8 °F 31% 30.18 in 6.0 mi East 4.6 mph - N/A   Scattered Clouds
3:45 PM 75.2 °F 42.8 °F 31% 29.65 in 6.0 mi NNW 5.8 mph - N/A   Scattered Clouds
4:45 PM 75.2 °F 42.8 °F 31% 30.14 in 5.0 mi NNW 10.4 mph - N/A   Scattered Clouds
5:45 PM 73.4 °F 42.8 °F 33% 30.13 in 5.0 mi East 6.9 mph - N/A   Mostly Cloudy
6:19 PM 69.8 °F 44.6 °F 40% 30.14 in 6.0 mi SE 9.2 mph - N/A   Mostly Cloudy
6:27 PM 68.0 °F 46.4 °F 46% 30.14 in 5.0 mi SSW 8.1 mph - N/A Rain Light Rain
6:42 PM 64.4 °F 51.8 °F 64% 30.15 in 5.0 mi South 4.6 mph - N/A Rain Light Rain
6:52 PM 64.4 °F 51.8 °F 64% 29.66 in 5.0 mi South 10.4 mph - N/A Rain Light Rain
7:23 PM 64.4 °F 50.0 °F 59% 30.16 in 7.0 mi East 8.1 mph - N/A   Mostly Cloudy
7:47 PM 64.4 °F 50.0 °F 59% 30.15 in 10.0 mi ESE 6.9 mph - N/A   Mostly Cloudy
8:45 PM 62.6 °F 51.8 °F 68% 30.19 in 12.0 mi ENE 5.8 mph - N/A   Scattered Clouds
9:45 PM 64.4 °F 50.0 °F 59% 29.72 in 12.0 mi SSE 5.8 mph - N/A   Scattered Clouds
10:44 PM 60.8 °F 51.8 °F 72% 30.23 in 12.0 mi NE 4.6 mph - N/A   Scattered Clouds
10:45 PM 60.8 °F 51.8 °F 72% 30.23 in 12.0 mi NE 4.6 mph - N/A   Scattered Clouds
11:47 PM 60.8 °F 51.8 °F 72% 30.25 in 10.0 mi East 4.6 mph - N/A   Scattered Clouds